﻿測定場所 (Monitoring sites),日付 (Measurement date),時間 (Measurement time),線量率 最大値 (max) μGy/h,線量率 最小値 (min) μGy/h,線量率 平均値 (average) μGy/h,
調布 (Chofu),2018-03-11,23:01～24:00,0.0301,0.0265,0.0284,
調布 (Chofu),2018-03-11,22:01～23:00,0.0295,0.0264,0.0283,
調布 (Chofu),2018-03-11,21:01～22:00,0.0303,0.0269,0.0283,
調布 (Chofu),2018-03-11,20:01～21:00,0.0302,0.0271,0.0284,
調布 (Chofu),2018-03-11,19:01～20:00,0.0305,0.0268,0.0284,
調布 (Chofu),2018-03-11,18:01～19:00,0.0304,0.0265,0.0284,
調布 (Chofu),2018-03-11,17:01～18:00,0.0304,0.0263,0.0280,
調布 (Chofu),2018-03-11,16:01～17:00,0.0301,0.0266,0.0281,
調布 (Chofu),2018-03-11,15:01～16:00,0.0293,0.0264,0.0280,
調布 (Chofu),2018-03-11,14:01～15:00,0.0310,0.0254,0.0280,
調布 (Chofu),2018-03-11,13:01～14:00,0.0301,0.0261,0.0281,
調布 (Chofu),2018-03-11,12:01～13:00,0.0296,0.0253,0.0279,
調布 (Chofu),2018-03-11,11:01～12:00,0.0305,0.0263,0.0281,
調布 (Chofu),2018-03-11,10:01～11:00,0.0297,0.0261,0.0280,
調布 (Chofu),2018-03-11,09:01～10:00,0.0301,0.0260,0.0280,
調布 (Chofu),2018-03-11,08:01～09:00,0.0302,0.0266,0.0282,
調布 (Chofu),2018-03-11,07:01～08:00,0.0298,0.0265,0.0281,
調布 (Chofu),2018-03-11,06:01～07:00,0.0296,0.0253,0.0278,
調布 (Chofu),2018-03-11,05:01～06:00,0.0300,0.0260,0.0281,
調布 (Chofu),2018-03-11,04:01～05:00,0.0298,0.0260,0.0280,
調布 (Chofu),2018-03-11,03:01～04:00,0.0299,0.0256,0.0279,
調布 (Chofu),2018-03-11,02:01～03:00,0.0308,0.0266,0.0282,
調布 (Chofu),2018-03-11,01:01～02:00,0.0299,0.0260,0.0277,
調布 (Chofu),2018-03-11,00:01～01:00,0.0295,0.0261,0.0279,
調布 (Chofu),2018-03-10,23:01～24:00,0.0305,0.0262,0.0281,
調布 (Chofu),2018-03-10,22:01～23:00,0.0294,0.0261,0.0278,
調布 (Chofu),2018-03-10,21:01～22:00,0.0303,0.0264,0.0279,
調布 (Chofu),2018-03-10,20:01～21:00,0.0300,0.0262,0.0278,
調布 (Chofu),2018-03-10,19:01～20:00,0.0299,0.0259,0.0279,
調布 (Chofu),2018-03-10,18:01～19:00,0.0304,0.0267,0.0281,
調布 (Chofu),2018-03-10,17:01～18:00,0.0295,0.0263,0.0278,
調布 (Chofu),2018-03-10,16:01～17:00,0.0297,0.0258,0.0279,
調布 (Chofu),2018-03-10,15:01～16:00,0.0299,0.0261,0.0279,
調布 (Chofu),2018-03-10,14:01～15:00,0.0299,0.0261,0.0280,
調布 (Chofu),2018-03-10,13:01～14:00,0.0305,0.0262,0.0281,
調布 (Chofu),2018-03-10,12:01～13:00,0.0300,0.0252,0.0278,
調布 (Chofu),2018-03-10,11:01～12:00,0.0300,0.0261,0.0280,
調布 (Chofu),2018-03-10,10:01～11:00,0.0302,0.0263,0.0282,
調布 (Chofu),2018-03-10,09:01～10:00,0.0305,0.0267,0.0281,
調布 (Chofu),2018-03-10,08:01～09:00,0.0308,0.0260,0.0284,
調布 (Chofu),2018-03-10,07:01～08:00,0.0301,0.0269,0.0284,
調布 (Chofu),2018-03-10,06:01～07:00,0.0310,0.0267,0.0286,
調布 (Chofu),2018-03-10,05:01～06:00,0.0324,0.0276,0.0300,
調布 (Chofu),2018-03-10,04:01～05:00,0.0430,0.0309,0.0356,
調布 (Chofu),2018-03-10,03:01～04:00,0.0499,0.0392,0.0454,
調布 (Chofu),2018-03-10,02:01～03:00,0.0561,0.0445,0.0509,
調布 (Chofu),2018-03-10,01:01～02:00,0.0533,0.0382,0.0448,
調布 (Chofu),2018-03-10,00:01～01:00,0.0458,0.0389,0.0419,
調布 (Chofu),2018-03-09,23:01～24:00,0.0438,0.0297,0.0358,
調布 (Chofu),2018-03-09,22:01～23:00,0.0317,0.0271,0.0294,
調布 (Chofu),2018-03-09,21:01～22:00,0.0311,0.0270,0.0287,
調布 (Chofu),2018-03-09,20:01～21:00,0.0303,0.0267,0.0285,
調布 (Chofu),2018-03-09,19:01～20:00,0.0300,0.0267,0.0281,
調布 (Chofu),2018-03-09,18:01～19:00,0.0291,0.0255,0.0275,
調布 (Chofu),2018-03-09,17:01～18:00,0.0289,0.0256,0.0274,
調布 (Chofu),2018-03-09,16:01～17:00,0.0301,0.0251,0.0274,
調布 (Chofu),2018-03-09,15:01～16:00,0.0303,0.0263,0.0279,
調布 (Chofu),2018-03-09,14:01～15:00,0.0304,0.0268,0.0286,
調布 (Chofu),2018-03-09,13:01～14:00,0.0324,0.0280,0.0297,
調布 (Chofu),2018-03-09,12:01～13:00,0.0314,0.0269,0.0292,
調布 (Chofu),2018-03-09,11:01～12:00,0.0330,0.0267,0.0295,
調布 (Chofu),2018-03-09,10:01～11:00,0.0298,0.0259,0.0280,
調布 (Chofu),2018-03-09,09:01～10:00,0.0309,0.0264,0.0286,
調布 (Chofu),2018-03-09,08:01～09:00,0.0317,0.0274,0.0296,
調布 (Chofu),2018-03-09,07:01～08:00,0.0371,0.0299,0.0337,
調布 (Chofu),2018-03-09,06:01～07:00,0.0386,0.0338,0.0358,
調布 (Chofu),2018-03-09,05:01～06:00,0.0415,0.0339,0.0370,
調布 (Chofu),2018-03-09,04:01～05:00,0.0413,0.0349,0.0376,
調布 (Chofu),2018-03-09,03:01～04:00,0.0452,0.0356,0.0403,
調布 (Chofu),2018-03-09,02:01～03:00,0.0457,0.0364,0.0398,
調布 (Chofu),2018-03-09,01:01～02:00,0.0431,0.0364,0.0395,
調布 (Chofu),2018-03-09,00:01～01:00,0.0447,0.0380,0.0413,
調布 (Chofu),2018-03-08,23:01～24:00,0.0461,0.0383,0.0423,
調布 (Chofu),2018-03-08,22:01～23:00,0.0457,0.0399,0.0428,
調布 (Chofu),2018-03-08,21:01～22:00,0.0445,0.0356,0.0394,
調布 (Chofu),2018-03-08,20:01～21:00,0.0414,0.0354,0.0373,
調布 (Chofu),2018-03-08,19:01～20:00,0.0405,0.0349,0.0376,
調布 (Chofu),2018-03-08,18:01～19:00,0.0458,0.0363,0.0404,
調布 (Chofu),2018-03-08,17:01～18:00,0.0476,0.0408,0.0444,
調布 (Chofu),2018-03-08,16:01～17:00,0.0520,0.0430,0.0480,
調布 (Chofu),2018-03-08,15:01～16:00,0.0520,0.0438,0.0479,
調布 (Chofu),2018-03-08,14:01～15:00,0.0502,0.0423,0.0464,
調布 (Chofu),2018-03-08,13:01～14:00,0.0488,0.0412,0.0448,
調布 (Chofu),2018-03-08,12:01～13:00,0.0475,0.0395,0.0433,
調布 (Chofu),2018-03-08,11:01～12:00,0.0442,0.0365,0.0404,
調布 (Chofu),2018-03-08,10:01～11:00,0.0397,0.0337,0.0357,
調布 (Chofu),2018-03-08,09:01～10:00,0.0392,0.0338,0.0365,
調布 (Chofu),2018-03-08,08:01～09:00,0.0385,0.0301,0.0332,
調布 (Chofu),2018-03-08,07:01～08:00,0.0369,0.0292,0.0333,
調布 (Chofu),2018-03-08,06:01～07:00,0.0334,0.0280,0.0307,
調布 (Chofu),2018-03-08,05:01～06:00,0.0331,0.0276,0.0303,
調布 (Chofu),2018-03-08,04:01～05:00,0.0314,0.0270,0.0288,
調布 (Chofu),2018-03-08,03:01～04:00,0.0307,0.0260,0.0286,
調布 (Chofu),2018-03-08,02:01～03:00,0.0307,0.0275,0.0290,
調布 (Chofu),2018-03-08,01:01～02:00,0.0320,0.0275,0.0292,
調布 (Chofu),2018-03-08,00:01～01:00,0.0320,0.0273,0.0297,
調布 (Chofu),2018-03-07,23:01～24:00,0.0298,0.0259,0.0280,
調布 (Chofu),2018-03-07,22:01～23:00,0.0299,0.0265,0.0280,
調布 (Chofu),2018-03-07,21:01～22:00,0.0298,0.0264,0.0280,
調布 (Chofu),2018-03-07,20:01～21:00,0.0299,0.0256,0.0280,
調布 (Chofu),2018-03-07,19:01～20:00,0.0299,0.0264,0.0278,
調布 (Chofu),2018-03-07,18:01～19:00,0.0295,0.0257,0.0278,
調布 (Chofu),2018-03-07,17:01～18:00,0.0304,0.0258,0.0278,
調布 (Chofu),2018-03-07,16:01～17:00,0.0297,0.0260,0.0277,
調布 (Chofu),2018-03-07,15:01～16:00,0.0295,0.0262,0.0278,
調布 (Chofu),2018-03-07,14:01～15:00,0.0305,0.0263,0.0280,
調布 (Chofu),2018-03-07,13:01～14:00,0.0300,0.0258,0.0280,
調布 (Chofu),2018-03-07,12:01～13:00,0.0302,0.0262,0.0284,
調布 (Chofu),2018-03-07,11:01～12:00,0.0310,0.0264,0.0282,
調布 (Chofu),2018-03-07,10:01～11:00,0.0304,0.0265,0.0284,
調布 (Chofu),2018-03-07,09:01～10:00,0.0300,0.0267,0.0285,
調布 (Chofu),2018-03-07,08:01～09:00,0.0299,0.0268,0.0285,
調布 (Chofu),2018-03-07,07:01～08:00,0.0306,0.0271,0.0286,
調布 (Chofu),2018-03-07,06:01～07:00,0.0312,0.0267,0.0287,
調布 (Chofu),2018-03-07,05:01～06:00,0.0304,0.0274,0.0288,
調布 (Chofu),2018-03-07,04:01～05:00,0.0323,0.0265,0.0287,
調布 (Chofu),2018-03-07,03:01～04:00,0.0314,0.0270,0.0289,
調布 (Chofu),2018-03-07,02:01～03:00,0.0304,0.0266,0.0286,
調布 (Chofu),2018-03-07,01:01～02:00,0.0303,0.0271,0.0285,
調布 (Chofu),2018-03-07,00:01～01:00,0.0304,0.0271,0.0286,
調布 (Chofu),2018-03-06,23:01～24:00,0.0304,0.0258,0.0281,
調布 (Chofu),2018-03-06,22:01～23:00,0.0306,0.0261,0.0283,
調布 (Chofu),2018-03-06,21:01～22:00,0.0301,0.0263,0.0282,
調布 (Chofu),2018-03-06,20:01～21:00,0.0299,0.0263,0.0283,
調布 (Chofu),2018-03-06,19:01～20:00,0.0298,0.0253,0.0279,
調布 (Chofu),2018-03-06,18:01～19:00,0.0294,0.0265,0.0278,
調布 (Chofu),2018-03-06,17:01～18:00,0.0306,0.0259,0.0277,
調布 (Chofu),2018-03-06,16:01～17:00,0.0297,0.0260,0.0279,
調布 (Chofu),2018-03-06,15:01～16:00,0.0298,0.0265,0.0280,
調布 (Chofu),2018-03-06,14:01～15:00,0.0312,0.0264,0.0282,
調布 (Chofu),2018-03-06,13:01～14:00,0.0295,0.0264,0.0282,
調布 (Chofu),2018-03-06,12:01～13:00,0.0302,0.0263,0.0281,
調布 (Chofu),2018-03-06,11:01～12:00,0.0305,0.0261,0.0282,
調布 (Chofu),2018-03-06,10:01～11:00,0.0300,0.0266,0.0283,
調布 (Chofu),2018-03-06,09:01～10:00,0.0300,0.0262,0.0281,
調布 (Chofu),2018-03-06,08:01～09:00,0.0297,0.0265,0.0282,
調布 (Chofu),2018-03-06,07:01～08:00,0.0301,0.0267,0.0281,
調布 (Chofu),2018-03-06,06:01～07:00,0.0296,0.0251,0.0280,
調布 (Chofu),2018-03-06,05:01～06:00,0.0306,0.0261,0.0285,
調布 (Chofu),2018-03-06,04:01～05:00,0.0301,0.0262,0.0283,
調布 (Chofu),2018-03-06,03:01～04:00,0.0310,0.0273,0.0290,
調布 (Chofu),2018-03-06,02:01～03:00,0.0337,0.0278,0.0309,
調布 (Chofu),2018-03-06,01:01～02:00,0.0428,0.0318,0.0364,
調布 (Chofu),2018-03-06,00:01～01:00,0.0442,0.0372,0.0402,
調布 (Chofu),2018-03-05,23:01～24:00,0.0446,0.0375,0.0410,
調布 (Chofu),2018-03-05,22:01～23:00,0.0487,0.0365,0.0424,
調布 (Chofu),2018-03-05,21:01～22:00,0.0378,0.0306,0.0347,
調布 (Chofu),2018-03-05,20:01～21:00,0.0309,0.0271,0.0288,
調布 (Chofu),2018-03-05,19:01～20:00,0.0347,0.0275,0.0306,
調布 (Chofu),2018-03-05,18:01～19:00,0.0429,0.0326,0.0372,
調布 (Chofu),2018-03-05,17:01～18:00,0.0445,0.0318,0.0378,
調布 (Chofu),2018-03-05,16:01～17:00,0.0330,0.0277,0.0301,
調布 (Chofu),2018-03-05,15:01～16:00,0.0356,0.0297,0.0326,
調布 (Chofu),2018-03-05,14:01～15:00,0.0365,0.0311,0.0335,
調布 (Chofu),2018-03-05,13:01～14:00,0.0346,0.0305,0.0325,
調布 (Chofu),2018-03-05,12:01～13:00,0.0344,0.0281,0.0310,
調布 (Chofu),2018-03-05,11:01～12:00,0.0311,0.0270,0.0291,
調布 (Chofu),2018-03-05,10:01～11:00,0.0303,0.0263,0.0282,
調布 (Chofu),2018-03-05,09:01～10:00,0.0309,0.0266,0.0285,
調布 (Chofu),2018-03-05,08:01～09:00,0.0308,0.0269,0.0288,
調布 (Chofu),2018-03-05,07:01～08:00,0.0308,0.0277,0.0290,
調布 (Chofu),2018-03-05,06:01～07:00,0.0306,0.0272,0.0290,
調布 (Chofu),2018-03-05,05:01～06:00,0.0307,0.0278,0.0290,
調布 (Chofu),2018-03-05,04:01～05:00,0.0310,0.0269,0.0288,
調布 (Chofu),2018-03-05,03:01～04:00,0.0300,0.0260,0.0279,
調布 (Chofu),2018-03-05,02:01～03:00,0.0292,0.0260,0.0279,
調布 (Chofu),2018-03-05,01:01～02:00,0.0297,0.0269,0.0281,
調布 (Chofu),2018-03-05,00:01～01:00,0.0300,0.0257,0.0281,
